Date,TemperatureHighF,TemperatureAvgF,TemperatureLowF,DewpointHighF,DewpointAvgF,DewpointLowF,HumidityHigh,HumidityAvg,HumidityLow,PressureMaxIn,PressureMinIn,WindSpeedMaxMPH,WindSpeedAvgMPH,GustSpeedMaxMPH,PrecipitationSumIn
2013-1-1,41.7,37.9,27.8,32.9,27.7,15.7,75,67,56,30.03,29.84,41,6,41,0.05
2013-1-2,35.7,29.2,21.9,21.5,17.7,14.7,78,62,50,30.19,30.01,41,5,41,0.00
2013-1-3,30.3,28.8,26.9,21.7,20.7,19.1,73,71,69,30.19,30.18,17,2,17,0.00
2013-1-5,43.3,33.3,30.0,28.8,26.9,26.0,87,78,53,30.27,30.19,5,2,5,0.00
2013-1-6,49.4,40.8,33.1,35.4,31.4,27.3,91,70,51,30.23,29.97,38,4,38,0.00
2013-1-7,47.7,38.5,29.5,33.8,28.7,24.7,92,69,43,30.40,30.05,35,3,35,0.00
2013-1-8,51.1,38.8,27.8,36.1,31.4,25.1,92,76,54,30.44,30.34,29,3,29,0.00
2013-1-9,49.3,40.2,29.1,41.0,34.9,28.1,97,82,70,30.40,30.13,32,3,32,0.00
2013-1-10,50.9,43.5,35.2,36.5,30.0,27.7,79,60,42,30.56,30.23,38,4,38,0.00
2013-1-11,44.3,38.9,1.0,43.8,34.7,0.0,98,85,3,30.56,30.10,17,2,17,0.19
2013-1-12,48.7,45.8,43.3,47.2,45.1,42.8,99,97,93,30.18,30.07,14,2,14,0.08
2013-1-13,50.6,47.8,45.4,49.4,46.9,44.7,99,97,92,30.16,30.01,17,2,17,0.05
2013-1-14,57.9,51.2,39.4,55.5,46.0,34.3,99,84,57,30.31,29.89,32,3,32,0.02
2013-1-15,40.7,38.7,36.6,37.4,32.0,29.0,95,77,66,30.36,30.22,20,2,20,0.01
2013-1-16,37.0,35.0,33.7,36.1,34.0,31.8,98,96,82,30.24,29.82,20,2,20,0.01
2013-1-17,47.1,40.0,36.1,36.1,32.6,26.1,97,76,60,30.11,29.91,38,3,38,0.03
2013-1-18,36.0,30.4,26.9,26.5,15.8,9.3,72,55,38,30.49,30.02,38,4,38,0.00
2013-1-19,44.2,33.6,29.9,31.2,22.8,16.5,73,64,57,30.41,30.20,50,8,50,0.01
2013-1-20,55.5,45.7,31.3,35.5,23.5,13.9,59,42,27,30.05,29.69,71,14,71,0.11
2013-1-21,33.4,30.0,23.7,21.6,16.8,11.9,76,58,47,30.10,29.84,44,3,44,0.00
2013-1-22,28.4,22.1,15.1,21.4,6.2,-2.5,75,51,33,30.22,29.84,65,10,65,0.00
2013-1-23,19.5,14.7,12.6,3.2,0.5,-2.4,60,53,44,30.27,30.20,38,6,38,0.00
2013-1-24,27.0,21.2,17.0,4.1,3.2,1.8,53,45,36,30.41,30.25,47,10,47,0.00
2013-1-25,18.5,15.6,14.1,7.6,5.0,2.4,67,62,53,30.43,30.40,35,4,35,0.00
2013-1-26,24.4,22.1,20.3,11.3,10.5,9.6,67,60,55,30.39,30.28,26,3,26,0.00
2013-1-27,38.1,25.7,15.4,17.9,14.5,11.0,86,64,40,30.53,30.38,26,4,26,0.00
2013-1-28,35.7,31.6,24.0,34.9,28.4,17.4,100,88,69,30.50,30.01,35,3,35,0.08
2013-1-29,51.2,41.1,35.7,45.6,39.0,34.9,98,92,77,30.17,30.00,17,3,17,0.19
2013-1-30,60.0,49.7,40.0,58.6,48.4,39.2,99,95,86,30.10,29.35,38,2,38,0.10
2013-1-31,62.7,47.1,31.5,60.8,34.8,13.7,98,64,40,29.79,29.03,95,20,95,0.20
2013-2-1,34.7,30.0,25.5,19.0,16.1,11.5,72,56,40,30.24,29.79,59,9,59,0.00
2013-2-2,28.5,26.0,25.3,23.4,20.9,14.4,91,81,60,30.25,30.07,17,4,20,0.00
2013-2-3,27.4,24.8,21.7,23.9,22.7,20.1,95,92,83,30.07,29.94,11,2,11,0.00
2013-2-5,32.3,31.8,30.8,30.1,28.3,26.4,92,87,82,30.00,29.91,17,3,17,0.00
2013-2-6,34.1,30.1,28.0,30.8,28.8,27.0,100,95,86,30.08,30.01,23,3,23,0.00
2013-2-7,34.1,30.8,23.3,27.3,16.4,12.6,76,55,43,30.53,30.35,17,2,17,0.00
2013-2-8,35.6,33.7,28.6,34.3,31.2,27.3,100,91,76,30.35,29.65,56,8,56,0.01
2013-2-9,29.9,27.2,20.5,29.3,22.2,12.1,98,83,57,30.36,29.77,29,3,29,0.00
2013-2-10,20.4,16.7,13.3,13.7,11.3,9.7,89,79,70,30.46,30.36,14,2,14,0.00
2013-2-11,42.4,39.0,34.0,42.0,38.4,32.7,100,98,95,30.14,29.67,17,2,17,0.80
2013-2-12,47.6,41.6,33.9,40.5,31.4,27.8,99,68,52,29.98,29.73,44,8,44,0.55
2013-2-13,45.7,38.0,27.0,34.2,29.5,24.9,95,73,52,29.96,29.69,20,2,20,0.20
2013-2-14,48.8,40.3,32.9,34.6,32.1,28.1,97,75,46,30.01,29.72,23,3,23,0.06
2013-2-15,56.9,43.6,33.7,40.7,36.3,31.2,91,77,49,30.02,29.91,44,4,44,0.00
2013-2-16,41.9,36.7,32.6,36.9,29.4,19.0,95,76,57,29.98,29.74,32,3,32,0.07
2013-2-17,33.7,27.6,19.2,19.4,10.9,4.3,58,49,37,30.02,29.67,62,9,62,0.00
2013-2-18,39.0,28.3,18.7,18.2,10.9,5.5,60,48,33,30.24,30.02,53,8,53,0.00
2013-2-19,49.9,39.9,28.6,44.8,32.0,17.4,97,75,50,30.21,29.67,47,4,47,0.25
2013-2-20,39.2,33.8,31.3,28.8,19.7,14.9,68,56,46,29.92,29.73,65,13,65,0.01
2013-2-21,38.7,31.9,25.9,20.4,17.8,16.5,69,56,45,30.29,30.00,44,8,44,0.13
2013-2-22,39.4,33.7,26.0,33.3,25.2,17.2,81,71,58,30.42,30.27,35,3,35,0.00
2013-2-23,43.1,38.9,36.4,42.6,37.7,33.0,100,95,81,30.28,29.81,41,3,41,0.11
2013-2-24,49.9,40.4,34.2,42.2,34.6,25.8,100,81,59,29.97,29.74,47,5,47,0.04
2013-2-25,47.5,39.6,29.3,32.9,29.7,25.7,89,68,51,30.24,29.97,23,3,23,0.00
2013-2-26,44.7,38.5,29.7,37.6,33.5,27.7,95,83,72,30.30,29.91,59,7,59,0.13
2013-2-27,47.7,43.6,37.8,46.5,41.7,36.2,97,93,82,29.92,29.50,74,15,74,0.81
2013-2-28,52.2,44.8,40.2,42.1,37.9,33.8,100,78,57,29.63,29.54,23,3,23,0.00
2013-3-1,47.9,40.6,31.8,36.0,32.4,28.9,94,73,55,29.79,29.61,35,4,35,0.00
2013-3-2,42.7,37.6,32.9,30.6,28.6,27.0,89,70,58,29.78,29.70,35,4,35,0.00
2013-3-3,44.2,34.9,30.1,28.1,23.4,19.7,82,63,46,29.77,29.66,44,6,44,0.00
2013-3-4,45.2,35.6,28.6,26.4,23.2,18.9,73,61,46,29.92,29.77,56,8,56,0.00
2013-3-5,50.9,40.5,30.5,32.0,28.2,23.8,79,62,45,30.02,29.91,38,4,38,0.00
2013-3-6,44.9,41.7,39.8,37.8,34.4,30.7,87,75,64,29.98,29.86,74,13,74,0.00
2013-3-7,40.6,38.2,34.3,35.5,32.3,29.3,97,79,68,30.09,29.93,62,7,62,0.14
2013-3-8,42.6,36.8,32.9,36.4,33.7,30.9,100,89,68,30.20,30.01,35,3,35,0.41
2013-3-9,58.6,44.8,34.9,31.7,27.9,22.0,75,54,27,30.32,30.18,35,4,35,0.15
2013-3-10,54.2,40.8,30.2,41.4,34.9,27.5,96,80,60,30.40,30.31,35,3,35,0.00
2013-3-11,56.4,48.5,38.9,50.2,44.2,36.2,94,85,70,30.32,30.09,35,3,35,0.00
2013-3-12,56.8,52.9,44.6,56.2,50.4,40.0,98,91,81,30.09,29.66,65,5,65,0.89
2013-3-13,54.9,44.1,35.4,40.0,33.6,26.8,95,69,38,29.89,29.78,47,6,47,0.00
2013-3-14,43.7,36.7,31.4,31.8,17.8,11.5,71,47,29,29.97,29.84,68,11,68,0.00
2013-3-15,47.8,39.2,30.8,34.2,23.5,13.7,67,53,43,29.98,29.72,56,8,56,0.00
2013-3-16,42.5,36.6,33.7,33.4,29.1,23.8,94,75,54,29.92,29.78,20,2,20,0.06
2013-3-17,40.9,34.7,29.2,32.7,23.3,17.8,95,65,44,30.32,29.92,41,4,41,0.02
2013-3-18,36.4,32.1,25.9,33.9,22.0,13.1,97,68,51,30.42,30.03,44,5,44,0.00
2013-3-19,45.0,38.5,34.8,38.9,36.1,32.3,97,91,77,30.03,29.71,47,5,47,0.78
2013-3-20,48.0,39.5,32.4,32.3,24.7,21.6,81,56,38,29.89,29.78,56,8,56,0.01
2013-3-21,42.6,36.7,33.1,30.4,21.4,14.9,86,55,37,29.85,29.63,35,4,35,0.00
2013-3-22,44.9,36.8,29.1,26.4,21.8,17.0,72,55,43,29.89,29.73,44,8,44,0.00
2013-3-23,49.4,40.8,33.3,27.0,24.3,22.3,66,52,38,29.94,29.82,53,9,53,0.00
2013-3-24,50.2,41.1,30.4,31.7,26.2,22.7,74,56,41,29.95,29.71,35,3,35,0.00
2013-3-25,43.2,40.4,39.0,37.8,32.6,28.5,94,74,56,29.72,29.48,59,5,59,0.11
2013-3-26,55.2,43.2,33.2,36.8,32.2,28.8,97,68,39,29.86,29.59,32,4,32,0.00
2013-3-27,56.1,43.8,30.8,35.9,30.3,24.5,88,62,34,29.98,29.86,41,5,41,0.00
2013-3-28,53.8,45.2,34.2,38.8,33.9,30.1,87,65,49,30.11,29.96,35,4,35,0.00
2013-3-29,57.9,47.5,34.6,35.2,32.6,30.3,87,58,38,30.15,30.05,35,4,35,0.00
2013-3-30,62.5,48.3,32.8,36.2,30.4,24.4,92,55,26,30.17,30.05,50,3,50,0.00
2013-3-31,57.9,46.4,33.3,46.3,37.7,30.3,96,74,41,30.12,29.67,44,4,44,0.11
2013-4-1,65.7,49.8,38.7,48.9,40.5,17.1,98,73,38,29.91,29.61,56,8,56,0.01
2013-4-2,46.9,39.6,30.4,22.2,18.3,15.1,67,43,30,30.10,29.91,50,9,50,0.00
2013-4-3,50.2,40.7,33.2,21.6,17.4,14.4,53,39,28,30.31,30.09,59,10,59,0.00
2013-4-4,56.4,43.4,29.6,33.9,25.3,18.2,71,50,33,30.40,30.09,41,4,41,0.00
2013-4-5,66.4,51.4,42.3,34.8,29.0,22.3,70,45,23,30.09,29.71,44,6,44,0.00
2013-4-6,55.9,45.2,35.9,33.2,21.6,13.1,69,41,19,30.31,30.00,47,4,47,0.00
2013-4-7,59.7,49.9,40.0,47.4,38.7,29.8,78,66,44,30.30,29.98,41,5,41,0.00
2013-4-8,77.1,60.6,45.3,50.0,46.4,42.9,93,63,32,30.08,29.97,38,3,38,0.00
2013-4-9,86.0,69.1,51.4,57.2,47.9,39.1,92,54,21,29.99,29.88,59,6,59,0.00
2013-4-10,75.3,65.3,55.3,58.6,53.5,44.5,97,68,42,29.98,29.79,38,4,38,0.41
2013-4-11,64.1,57.1,48.9,59.5,51.6,41.6,98,83,65,30.05,29.77,35,4,35,0.00
2013-4-12,48.9,44.8,42.4,43.5,41.8,39.6,96,89,75,30.04,29.72,56,8,56,0.37
2013-4-13,60.2,50.6,40.8,44.3,40.3,36.2,97,71,46,29.97,29.75,38,4,38,0.04
2013-4-14,60.2,53.9,48.5,43.7,36.5,30.8,80,53,35,30.23,29.96,44,5,44,0.00
2013-4-15,60.4,51.5,43.1,41.7,34.6,30.5,73,53,41,30.38,30.23,35,4,35,0.00
2013-4-16,66.5,58.4,49.3,56.8,50.6,41.2,84,76,66,30.37,30.10,47,4,47,0.00
2013-4-17,70.5,63.4,53.5,58.3,48.6,39.9,90,61,36,30.29,30.11,26,3,26,0.00
2013-4-18,62.1,55.6,47.6,56.3,47.4,40.0,94,75,46,30.35,30.10,41,4,41,0.01
2013-4-19,74.6,66.0,57.6,65.6,61.4,56.2,96,86,71,30.10,29.64,41,4,41,0.09
2013-4-20,64.6,55.2,47.4,63.4,39.5,28.2,96,59,33,30.31,29.66,47,7,47,0.10
2013-4-21,57.1,47.2,36.6,36.1,27.3,23.0,72,47,30,30.62,30.31,29,3,29,0.00
2013-4-22,54.3,45.9,39.0,40.2,36.2,32.6,85,69,49,30.67,30.50,41,4,41,0.00
2013-4-23,53.9,47.2,41.6,44.4,39.8,34.0,90,76,69,30.50,30.12,41,3,41,0.00
2013-4-24,73.0,55.2,38.8,54.8,47.3,37.2,96,77,50,30.12,29.82,41,4,41,0.00
2013-4-25,67.6,58.5,48.2,55.1,36.4,25.9,86,47,22,30.26,29.85,44,5,44,0.00
2013-4-26,69.2,56.7,41.0,43.9,36.6,26.5,94,52,23,30.41,30.26,32,3,32,0.00
2013-4-27,56.8,47.5,40.6,39.5,35.7,34.0,82,65,44,30.43,30.40,8,2,8,0.00
2013-4-29,58.7,56.7,55.1,52.6,50.3,48.1,87,79,70,30.24,30.19,23,2,23,0.07
2013-4-30,68.4,59.4,50.2,50.8,41.7,28.0,90,57,24,30.34,30.21,32,3,32,0.00
2013-5-1,70.8,56.8,40.2,49.3,41.6,32.9,88,59,34,30.48,30.33,38,3,38,0.00
2013-5-2,75.3,60.5,43.3,51.2,45.2,41.4,97,62,32,30.47,30.31,29,3,29,0.00
2013-5-3,67.2,58.0,49.9,47.7,43.3,36.8,86,59,34,30.46,30.36,47,4,47,0.00
2013-5-4,71.8,56.4,43.7,50.6,45.6,42.2,96,70,42,30.38,30.24,50,3,50,0.00
2013-5-5,66.0,54.1,43.7,48.2,43.4,40.2,91,69,42,30.30,30.22,26,3,26,0.00
2013-5-6,71.8,57.8,45.5,57.9,50.4,42.5,95,77,55,30.28,30.15,26,2,26,0.00
2013-5-7,74.8,63.0,48.3,61.7,55.8,47.1,98,79,63,30.17,30.08,32,3,32,0.00
2013-5-8,66.8,61.7,55.2,64.1,59.5,53.2,98,92,84,30.10,29.97,26,2,26,1.88
2013-5-9,68.9,60.4,54.2,63.3,58.0,52.8,98,92,77,30.01,29.88,14,2,14,0.45
2013-5-10,83.8,67.9,52.5,62.5,58.2,52.0,99,74,44,30.00,29.88,29,3,29,0.00
2013-5-11,72.3,65.2,62.6,66.9,63.4,59.1,98,94,79,29.90,29.69,38,3,38,0.89
2013-5-12,72.4,63.2,55.4,62.6,49.9,30.6,99,68,31,29.82,29.65,53,5,53,0.04
2013-5-13,60.7,54.0,46.0,37.8,34.2,29.8,71,48,36,30.11,30.00,47,4,47,0.00
2013-5-14,63.7,52.3,37.7,39.7,35.1,27.5,95,57,27,30.13,30.01,23,2,23,0.00
2013-5-15,70.4,59.6,43.3,61.0,50.5,38.5,88,72,50,30.07,29.67,29,3,29,0.00
2013-5-16,82.9,68.7,55.9,60.3,57.3,51.5,97,71,38,29.82,29.70,38,3,38,0.00
2013-5-17,74.2,65.9,57.2,55.9,47.2,42.3,82,52,36,30.20,29.82,23,2,23,0.00
2013-5-18,68.7,60.8,51.3,57.5,52.2,48.2,94,74,52,30.31,30.19,38,3,38,0.00
2013-5-19,61.0,59.1,57.5,57.2,55.3,51.7,96,88,72,30.32,30.28,32,3,32,0.05
2013-5-20,81.6,73.7,60.0,70.2,67.1,59.7,99,81,65,30.11,29.95,29,3,29,0.00
2013-5-21,89.8,73.8,64.5,73.4,68.4,63.8,99,85,55,29.97,29.87,35,3,35,0.00
2013-5-24,66.2,58.0,50.9,65.9,56.5,49.8,99,95,86,29.87,29.71,26,3,26,0.21
2013-5-25,55.8,53.5,51.7,50.0,48.9,47.5,88,84,78,29.92,29.90,35,6,35,0.30
2013-5-26,69.0,63.9,54.0,45.7,43.3,39.3,71,48,38,30.11,30.01,38,5,38,0.34
2013-5-27,76.9,67.9,42.9,49.7,45.4,41.4,97,47,30,30.25,30.10,32,3,32,0.00
2013-5-28,71.2,59.7,51.5,59.9,54.4,48.6,98,84,49,30.22,30.12,26,2,26,0.48
2013-5-29,86.8,71.8,59.7,72.3,65.5,59.4,99,83,59,30.14,29.98,32,3,32,0.01
2013-5-30,77.3,74.7,72.9,68.7,68.4,67.9,85,81,74,30.07,30.05,11,2,11,0.00
2013-5-31,92.1,87.1,79.8,69.9,65.9,63.3,62,50,43,30.01,29.97,23,3,23,0.00
2013-6-1,79.7,75.7,72.7,69.0,67.6,65.4,88,76,62,30.01,29.99,11,2,11,0.00
2013-6-4,75.0,68.0,57.9,52.1,49.6,47.2,70,52,40,30.04,29.99,29,3,29,0.00
2013-7-6,89.3,87.3,84.9,75.5,75.0,74.4,73,67,62,30.04,30.01,14,2,14,0.00
2013-7-7,96.1,92.3,86.7,77.9,76.1,73.1,73,60,50,30.04,29.91,35,5,35,0.00
2013-7-8,90.5,84.4,76.7,73.9,72.7,70.9,83,69,54,30.03,30.01,20,2,20,0.00